Fort Lewis, WA

7:01 PM PST on January 22, 2018 (GMT -0800)
Gray Army Air Field

Weather History for KGRF - January, 2012

Change the Weather History Date:

Tuesday, January 10, 2012

  Actual Average Record
Temperature  
Mean Temperature 34 °F -  
Max Temperature 42 °F 44 °F 57 °F (1999)
Min Temperature 26 °F 33 °F 24 °F (2005)
Degree Days  
Heating Degree Days 31    
Moisture  
Dew Point 34 °F    
Average Humidity 90    
Maximum Humidity 100    
Minimum Humidity 66    
Precipitation  
Precipitation 0.04 in - - ()
Sea Level Pressure  
Sea Level Pressure 30.44 in    
Wind  
Wind Speed 3 mph (NNE)    
Max Wind Speed 9 mph    
Max Gust Speed -    
Visibility 10 miles    
Events      
Averages and records for this station are not official NWS values.
T = Trace of Precipitation, MM = Missing Value Source: NWS Daily Summary

Daily Weather History Graph

Daily Weather History Graph

Search for Another Location

Airport or City:

Trip Planner

Search our weather history database for the weather conditions in past years. The results will help you decide how hot, cold, wet, or windy it might be!

Date:

Astronomy

Jan. 10, 2012 Rise Set
Actual Time 7:54 AM PST 4:41 PM PST
Civil Twilight 7:19 AM PST 5:15 PM PST
Nautical Twilight 6:41 AM PST 5:54 PM PST
Astronomical Twilight 6:05 AM PST 6:30 PM PST
Moon 6:48 PM PST (1/10) 8:28 AM PST (1/10)
Length of Visible Light 9h 55m
Length of Day
8h 46m
Full, 97% of the Moon is Illuminated
Jan 10
Full
Jan 16
Last Quarter
Jan 22
New
Jan 30
First Quarter
Feb 7
Full

Hourly Weather History & Observations

Time (PST) Temp. Windchill Dew Point Humidity Pressure Visibility Wind Dir Wind Speed Gust Speed Precip Events Conditions
12:14 AM 41.0 °F 37.1 °F 39.2 °F 93% 30.31 in 10.0 mi East 5.8 mph - N/A   Overcast
12:55 AM 40.6 °F 37.5 °F 39.0 °F 94% 30.31 in 10.0 mi ESE 4.6 mph - 0.01 in   Overcast
1:55 AM 39.4 °F 33.8 °F 38.1 °F 95% 30.33 in 10.0 mi SE 8.1 mph - 0.01 in   Overcast
2:37 AM 39.2 °F - 37.4 °F 93% 30.36 in 10.0 mi Calm Calm - N/A   Overcast
2:55 AM 38.8 °F - 37.8 °F 96% 30.36 in 10.0 mi Calm Calm - N/A   Overcast
3:06 AM 39.2 °F - 37.4 °F 93% 30.37 in 5.0 mi Calm Calm - N/A   Overcast
3:24 AM 39.2 °F - 37.4 °F 93% 30.38 in 8.0 mi Calm Calm - N/A   Light Drizzle
3:47 AM 39.2 °F - 37.4 °F 93% 30.37 in 10.0 mi Calm Calm - N/A   Mostly Cloudy
3:55 AM 38.3 °F - 37.0 °F 95% 30.37 in 10.0 mi Calm Calm - 0.01 in   Scattered Clouds
4:55 AM 34.9 °F 32.0 °F 33.8 °F 96% 30.38 in 10.0 mi South 3.5 mph - 0.01 in   Partly Cloudy
5:55 AM 34.7 °F 31.8 °F 34.2 °F 98% 30.38 in 10.0 mi ESE 3.5 mph - N/A   Overcast
6:23 AM 33.8 °F - 33.8 °F 100% 30.40 in 10.0 mi Calm Calm - N/A   Overcast
6:55 AM 35.2 °F - 34.7 °F 98% 30.41 in 10.0 mi Calm Calm - N/A   Overcast
7:55 AM 36.1 °F - 35.8 °F 99% 30.42 in 10.0 mi Calm Calm - N/A   Overcast
8:36 AM 37.4 °F - 35.6 °F 93% 30.44 in 10.0 mi Calm Calm - N/A   Overcast
8:55 AM 37.6 °F - 36.5 °F 96% 30.44 in 10.0 mi Calm Calm - N/A   Mostly Cloudy
9:04 AM 37.4 °F - 35.6 °F 93% 30.45 in 10.0 mi Calm Calm - N/A   Overcast
9:55 AM 39.0 °F 36.8 °F 37.2 °F 93% 30.47 in 10.0 mi Variable 3.5 mph - N/A   Mostly Cloudy
10:57 AM 39.2 °F 35.0 °F 37.4 °F 93% 30.50 in 10.0 mi NW 5.8 mph - N/A   Overcast
11:55 AM 40.3 °F 37.1 °F 36.7 °F 87% 30.50 in 10.0 mi WNW 4.6 mph - N/A   Overcast
12:55 PM 41.5 °F 37.8 °F 36.1 °F 81% 30.50 in 10.0 mi NNW 5.8 mph - N/A   Overcast
1:55 PM 42.6 °F 37.2 °F 34.2 °F 72% 30.51 in 10.0 mi NNW 9.2 mph - N/A   Overcast
2:55 PM 42.8 °F 38.0 °F 32.2 °F 66% 30.51 in 10.0 mi NNW 8.1 mph - N/A   Partly Cloudy
3:55 PM 41.9 °F 36.9 °F 32.2 °F 68% 30.51 in 10.0 mi North 8.1 mph - N/A   Clear
4:55 PM 38.3 °F 34.8 °F 32.0 °F 78% 30.51 in 10.0 mi NNW 4.6 mph - N/A   Clear
5:55 PM 37.2 °F 32.6 °F 30.7 °F 77% 30.51 in 10.0 mi North 5.8 mph - N/A   Clear
6:55 PM 36.0 °F 32.1 °F 30.2 °F 80% 30.51 in 10.0 mi North 4.6 mph - N/A   Clear
7:55 PM 35.8 °F 30.9 °F 30.6 °F 81% 30.53 in 10.0 mi North 5.8 mph - N/A   Clear
8:55 PM 31.1 °F - 29.7 °F 94% 30.52 in 10.0 mi Calm Calm - N/A   Clear
9:55 PM 28.0 °F 22.8 °F 26.8 °F 95% 30.52 in 10.0 mi SE 4.6 mph - N/A   Clear
10:55 PM 26.2 °F 22.1 °F 25.0 °F 95% 30.52 in 10.0 mi SE 3.5 mph - N/A   Clear
11:55 PM 28.6 °F - 27.5 °F 96% 30.52 in 10.0 mi Calm Calm - N/A   Clear